This is the latest recevied weather packets stored in our database for station/object APPOWX. If no packets are shown the sender has not sent any weather packets the latest 1 day(s).
| Time | Temp. | Humidity | Pressure | Rain* | Wind** | Luminosity | Snow |
|---|---|---|---|---|---|---|---|
| 1777987031 | 16.11° C | 64% | 1017.5 hPa | 0 mm | 0 m/s | - | - |
| 1777986971 | 16.11° C | 65% | 1017.5 hPa | 0 mm | 0.45 m/s, 82° | - | - |
| 1777986911 | 16.67° C | 64% | 1017.6 hPa | 0 mm | 0.45 m/s, 46° | - | - |
| 1777986851 | 16.11° C | 64% | 1017.6 hPa | 0 mm | 0 m/s | - | - |
| 1777986790 | 16.11° C | 64% | 1017.5 hPa | 0 mm | 0 m/s | - | - |
| 1777986730 | 15.56° C | 65% | 1017.6 hPa | 0 mm | 0 m/s | - | - |
| 1777986670 | 15.56° C | 65% | 1017.5 hPa | 0 mm | 0.45 m/s, 78° | - | - |
| 1777986610 | 15.56° C | 65% | 1017.6 hPa | 0 mm | 0 m/s | - | - |
| 1777986550 | 15.56° C | 65% | 1017.6 hPa | 0 mm | 0.45 m/s, 54° | - | - |
| 1777986490 | 15.56° C | 65% | 1017.6 hPa | 0 mm | 0.89 m/s, 47° | - | - |
| 1777986430 | 15.56° C | 66% | 1017.5 hPa | 0 mm | 0.45 m/s, 64° | - | - |
| 1777986369 | 15.56° C | 69% | 1017.6 hPa | 0 mm | 0 m/s | - | - |
| 1777986309 | 15.56° C | 67% | 1017.6 hPa | 0 mm | 0 m/s | - | - |
| 1777986249 | 15.56° C | 67% | 1017.6 hPa | 0 mm | 0 m/s | - | - |
| 1777986190 | 15.56° C | 68% | 1017.7 hPa | 0 mm | 0 m/s | - | - |
| 1777986130 | 15.56° C | 66% | 1017.6 hPa | 0 mm | 0 m/s | - | - |
| 1777986070 | 15.56° C | 67% | 1017.9 hPa | 0 mm | 0 m/s | - | - |
| 1777986010 | 15° C | 69% | 1017.8 hPa | 0 mm | 0 m/s | - | - |
| 1777985949 | 15° C | 68% | 1017.6 hPa | 0 mm | 0.89 m/s, 54° | - | - |
| 1777985889 | 15° C | 69% | 1017.6 hPa | 0 mm | 0.45 m/s, 44° | - | - |
| 1777985829 | 15° C | 68% | 1017.7 hPa | 0 mm | 0 m/s | - | - |
| 1777985768 | 15.56° C | 69% | 1017.8 hPa | 0 mm | 0 m/s | - | - |
| 1777985708 | 15° C | 68% | 1017.6 hPa | 0 mm | 0 m/s | - | - |
| 1777985648 | 14.44° C | 69% | 1017.7 hPa | 0 mm | 1.34 m/s, 86° | - | - |
| 1777985588 | 14.44° C | 71% | 1017.8 hPa | 0 mm | 0 m/s | - | - |
* Rain latest hour (hover to see other rain measurements)
** Current wind speed in m/s (hover to see current wind gust speed)